FW7330 Weather Reports


time (UTC)temp
C
wind
direction
speed
KPH
gust
KPH
rain 1hr
cm
rain 24hr
cm
rain mn
cm
humidity
%
barometer
mb
20260503223803 17 110 1.6 3.2 0.08 0.08 0.08 96 1019.5
20260503222613 16 267 1.6 1.6 0.03 0.03 0.03 96 1019.5
20260503221421 16 225 1.6 3.2 0.00 0.00 0.00 96 1019.6
20260503220231 16 250 0.0 1.6 0.00 0.00 0.00 96 1019.2
20260503214938 16 248 0.0 1.6 0.00 0.00 0.00 96 1019.0
20260503213749 16 219 1.6 3.2 0.00 0.00 0.00 96 1018.9
20260503212702 16 0.0 1.6 0.00 0.00 0.00 96 1018.5
20260503211409 16 238 1.6 1.6 0.00 0.00 0.00 96 1018.6
20260503210219 16 236 0.0 1.6 0.00 0.00 0.00 96 1018.7
20260503205005 16 0.0 1.6 0.00 0.00 0.00 96 1018.3
20260503203816 16 237 1.6 1.6 0.00 0.00 0.00 96 1018.5
20260503202649 16 236 0.0 1.6 0.00 0.00 0.00 96 1018.4
20260503201436 16 0.0 1.6 0.00 0.00 0.00 95 1018.3
20260503200205 16 0.0 0.0 0.00 0.00 0.00 95 1018.2
20260503195015 16 237 0.0 1.6 0.00 0.00 0.00 95 1018.3
20260503193722 16 0.0 0.0 0.00 0.00 0.00 95 1018.4
20260503192716 16 0.0 1.6 0.00 0.00 0.00 95 1018.4
20260503191446 16 206 1.6 3.2 0.00 0.00 0.00 96 1018.4
20260503190151 16 132 0.0 1.6 0.00 0.00 0.00 96 1018.4
20260503185100 16 170 1.6 3.2 0.00 0.00 0.00 96 1018.5
20260503183811 16 148 0.0 1.6 0.00 0.00 0.00 96 1018.5
20260503182620 16 0.0 0.0 0.00 0.00 0.00 96 1018.6
20260503181429 16 0.0 1.6 0.00 0.00 0.00 96 1018.5
20260503180319 16 175 0.0 1.6 0.00 0.00 0.00 96 1018.6
20260503174944 16 188 1.6 3.2 0.00 0.00 0.00 96 1018.5
20260503173831 15 119 1.6 3.2 0.00 0.00 0.00 96 1018.4
20260503172601 15 141 3.2 4.8 0.00 0.00 0.00 96 1018.5
20260503171409 15 146 1.6 1.6 0.00 0.00 0.00 96 1018.7
20260503170217 15 181 0.0 1.6 0.00 0.00 0.00 96 1018.7
20260503150149 16 88 1.6 3.2 0.00 0.00 0.00 95 1019.7
20260503140228 16 173 1.6 1.6 0.00 0.00 0.00 95 1020.2
20260503131404 16 162 0.0 1.6 0.00 0.00 0.00 95 1020.6
20260503130214 16 173 0.0 1.6 0.00 0.00 0.00 95 1020.6
20260503120156 16 152 1.6 3.2 0.00 0.00 0.00 95 1021.4
20260503110245 16 0.0 1.6 0.00 0.00 0.00 94 1021.2
20260503100216 16 0.0 0.0 0.00 0.00 0.00 92 1021.1
20260503090240 18 0.0 0.0 0.00 0.00 0.00 88 1021.2
20260503081439 20 306 3.2 6.4 0.00 0.00 0.00 84 1020.9
20260503080249 20 335 6.4 11.3 0.00 0.00 0.00 83 1020.8
20260503072513 21 332 9.7 12.9 0.00 0.00 0.00 81 1020.7
20260503071425 21 337 4.8 11.3 0.00 0.00 0.00 79 1020.7
20260503070234 21 326 9.7 16.1 0.00 0.00 0.00 78 1020.6
20260503060221 22 349 8.0 17.7 0.00 0.00 0.00 72 1020.9
20260503055111 22 334 4.8 16.1 0.00 0.00 0.00 72 1020.9
20260503053738 23 356 8.0 16.1 0.00 0.00 0.00 72 1021.0
20260503052547 23 24 9.7 22.5 0.00 0.00 0.00 71 1021.1
20260503051501 23 350 11.3 20.9 0.00 0.00 0.00 70 1021.1
20260503050208 22 47 6.4 17.7 0.00 0.00 0.00 72 1021.1
20260503045056 22 344 4.8 20.9 0.00 0.00 0.00 71 1021.2
20260503043827 22 356 4.8 14.5 0.00 0.00 0.00 70 1021.3
20260503042533 22 10 4.8 16.1 0.00 0.00 0.00 69 1021.3
20260503041424 23 78 8.0 20.9 0.00 0.00 0.00 69 1021.3
20260503040257 23 326 4.8 9.7 0.00 0.00 0.00 68 1021.4
20260503035044 23 343 8.0 16.1 0.00 0.00 0.00 66 1021.4
20260503033814 22 345 11.3 16.1 0.00 0.00 0.00 67 1021.7
20260503032601 23 319 11.3 22.5 0.00 0.00 0.00 63 1021.9
20260503031331 23 343 8.0 14.5 0.00 0.00 0.00 62 1021.8
20260503030244 23 306 8.0 14.5 0.00 0.00 0.00 60 1022.1
20260503024950 23 287 4.8 6.4 0.00 0.00 0.00 60 1022.3
20260503023759 23 341 11.3 20.9 0.00 0.00 0.00 61 1022.5
20260503021316 24 315 6.4 14.5 0.00 0.00 0.00 56 1022.9
20260503020229 24 321 8.0 22.5 0.00 0.00 0.00 54 1023.1
20260503015039 23 298 6.4 20.9 0.00 0.00 0.00 54 1023.3
20260503013746 23 342 12.9 20.9 0.00 0.00 0.00 53 1023.5
20260503012636 23 300 9.7 24.1 0.00 0.00 0.00 53 1023.7
20260503011406 23 308 9.7 20.9 0.00 0.00 0.00 55 1024.0
20260503010216 23 267 11.3 20.9 0.00 0.00 0.00 55 1024.3
20260503005106 23 311 6.4 17.7 0.00 0.00 0.00 59 1024.5
20260503003813 22 297 4.8 11.3 0.00 0.00 0.00 60 1024.5
20260503002543 22 290 6.4 12.9 0.00 0.00 0.00 62 1024.8
20260503001351 22 293 6.4 12.9 0.00 0.00 0.00 64 1024.8
20260503000203 21 295 8.0 14.5 0.00 0.00 0.00 66 1025.0
20260502235051 21 288 9.7 16.1 0.00 0.00 0.00 67 1025.2
20260502233821 21 284 8.0 11.3 0.00 0.00 0.00 68 1025.1
20260502232527 21 294 8.0 14.5 0.00 0.00 0.00 70 1025.0
20260502231337 21 300 8.0 14.5 0.00 0.00 0.00 71 1025.1
20260502230250 20 270 6.4 12.9 0.00 0.00 0.00 74 1025.2
20260502224957 20 286 6.4 14.5 0.00 0.00 0.00 75 1025.6